| time (UTC) | temp F | wind direction | speed knots | gust knots | rain 1hr in | rain 24hr in | rain mn in | humidity % | barometer mb |
| 20260507093503 | 55 | 69 | 2.6 | 8.7 | 0.00 | 0.00 | 0.00 | 64 | 1015.8 |
| 20260507093217 | 55 | 74 | 3.5 | 8.7 | 0.00 | 0.00 | 0.00 | 64 | 1015.8 |
| 20260507092503 | 55 | 89 | 2.6 | 13.0 | 0.00 | 0.00 | 0.00 | 65 | 1015.8 |
| 20260507092003 | 55 | 64 | 4.3 | 19.1 | 0.00 | 0.00 | 0.00 | 66 | 1015.7 |
| 20260507091503 | 54 | 42 | 5.2 | 19.1 | 0.00 | 0.00 | 0.00 | 67 | 1015.5 |
| 20260507091003 | 54 | 44 | 3.5 | 10.4 | 0.00 | 0.00 | 0.00 | 67 | 1015.5 |
| 20260507090503 | 54 | 66 | 2.6 | 8.7 | 0.00 | 0.00 | 0.00 | 68 | 1015.5 |
| 20260507090004 | 54 | 52 | 3.5 | 12.2 | 0.00 | 0.00 | 0.00 | 69 | 1015.7 |
| 20260507085503 | 54 | 43 | 4.3 | 12.2 | 0.00 | 0.00 | 0.00 | 69 | 1015.3 |
| 20260507085003 | 54 | 37 | 4.3 | 12.2 | 0.00 | 0.00 | 0.00 | 68 | 1015.4 |
| 20260507084504 | 53 | 35 | 4.3 | 10.4 | 0.00 | 0.00 | 0.00 | 70 | 1015.3 |
| 20260507084003 | 53 | 57 | 3.5 | 10.4 | 0.00 | 0.00 | 0.00 | 70 | 1015.5 |
| 20260507083503 | 53 | 87 | 1.7 | 8.7 | 0.00 | 0.00 | 0.00 | 71 | 1015.2 |
| 20260507083003 | 53 | 65 | 3.5 | 15.6 | 0.00 | 0.00 | 0.00 | 71 | 1015.2 |
| 20260507082718 | 53 | 58 | 4.3 | 15.6 | 0.00 | 0.00 | 0.00 | 71 | 1015.3 |
| 20260507082003 | 53 | 55 | 4.3 | 12.2 | 0.00 | 0.00 | 0.00 | 72 | 1015.5 |
| 20260507081503 | 53 | 46 | 4.3 | 12.2 | 0.00 | 0.00 | 0.00 | 72 | 1015.3 |
| 20260507081003 | 52 | 37 | 4.3 | 13.0 | 0.00 | 0.00 | 0.00 | 73 | 1015.5 |
| 20260507080503 | 52 | 34 | 6.1 | 13.0 | 0.00 | 0.00 | 0.00 | 73 | 1015.2 |
| 20260507080003 | 52 | 32 | 4.3 | 10.4 | 0.00 | 0.00 | 0.00 | 74 | 1015.1 |
| 20260507075503 | 52 | 61 | 3.5 | 12.2 | 0.00 | 0.00 | 0.00 | 75 | 1015.3 |
| 20260507075003 | 51 | 51 | 4.3 | 13.9 | 0.00 | 0.00 | 0.00 | 75 | 1015.1 |
| 20260507074503 | 51 | 40 | 4.3 | 13.9 | 0.00 | 0.00 | 0.00 | 75 | 1015.1 |
| 20260507074003 | 51 | 31 | 4.3 | 12.2 | 0.00 | 0.00 | 0.00 | 76 | 1015.1 |
| 20260507073503 | 51 | 35 | 3.5 | 12.2 | 0.00 | 0.00 | 0.00 | 76 | 1015.2 |
| 20260507073003 | 51 | 55 | 3.5 | 12.2 | 0.00 | 0.00 | 0.00 | 76 | 1015.1 |
| 20260507072503 | 51 | 51 | 3.5 | 12.2 | 0.00 | 0.00 | 0.00 | 77 | 1015.0 |
| 20260507072217 | 50 | 49 | 4.3 | 12.2 | 0.00 | 0.00 | 0.00 | 77 | 1014.9 |
| 20260507071718 | 50 | 46 | 5.2 | 13.0 | 0.00 | 0.00 | 0.00 | 77 | 1015.0 |
| 20260507071003 | 50 | 30 | 3.5 | 13.0 | 0.00 | 0.00 | 0.00 | 78 | 1014.8 |
| 20260507070503 | 50 | 35 | 2.6 | 10.4 | 0.00 | 0.00 | 0.00 | 78 | 1015.1 |
| 20260507070005 | 49 | 57 | 2.6 | 7.0 | 0.00 | 0.00 | 0.00 | 79 | 1014.9 |
| 20260507065717 | 49 | 69 | 2.6 | 7.0 | 0.00 | 0.00 | 0.00 | 79 | 1014.9 |
| 20260507065003 | 49 | 85 | 2.6 | 7.0 | 0.00 | 0.00 | 0.00 | 79 | 1014.8 |
| 20260507064503 | 49 | 68 | 2.6 | 7.0 | 0.00 | 0.00 | 0.00 | 80 | 1014.8 |
| 20260507064003 | 49 | 64 | 1.7 | 6.1 | 0.00 | 0.00 | 0.00 | 80 | 1014.7 |
| 20260507063503 | 49 | 52 | 3.5 | 8.7 | 0.00 | 0.00 | 0.00 | 81 | 1014.8 |
| 20260507063003 | 48 | 40 | 3.5 | 9.6 | 0.00 | 0.00 | 0.00 | 82 | 1014.7 |
| 20260507062717 | 48 | 38 | 3.5 | 10.4 | 0.00 | 0.00 | 0.00 | 82 | 1014.6 |
| 20260507062218 | 48 | 52 | 2.6 | 10.4 | 0.00 | 0.00 | 0.00 | 82 | 1014.5 |
| 20260507061717 | 48 | 51 | 2.6 | 10.4 | 0.00 | 0.00 | 0.00 | 82 | 1014.5 |
| 20260507061003 | 47 | 42 | 3.5 | 8.7 | 0.00 | 0.00 | 0.00 | 83 | 1014.5 |
| 20260507060503 | 47 | 32 | 3.5 | 9.6 | 0.00 | 0.00 | 0.00 | 83 | 1014.5 |
| 20260507060003 | 47 | 32 | 3.5 | 9.6 | 0.00 | 0.00 | 0.00 | 84 | 1014.3 |
| 20260507055503 | 47 | 29 | 2.6 | 9.6 | 0.00 | 0.00 | 0.00 | 84 | 1014.5 |
| 20260507055003 | 47 | 26 | 1.7 | 9.6 | 0.00 | 0.00 | 0.00 | 84 | 1014.4 |
| 20260507054503 | 46 | 24 | 1.7 | 4.3 | 0.00 | 0.00 | 0.00 | 85 | 1014.3 |
| 20260507054003 | 46 | 31 | 1.7 | 6.1 | 0.00 | 0.00 | 0.00 | 85 | 1014.2 |
| 20260507053503 | 46 | 33 | 1.7 | 6.1 | 0.00 | 0.00 | 0.00 | 85 | 1014.2 |
| 20260507053218 | 46 | 36 | 1.7 | 6.1 | 0.00 | 0.00 | 0.00 | 85 | 1014.3 |
| 20260507052503 | 45 | 32 | 0.9 | 4.3 | 0.00 | 0.00 | 0.00 | 86 | 1014.2 |
| 20260507052003 | 45 | 28 | 1.7 | 3.5 | 0.00 | 0.00 | 0.00 | 86 | 1014.1 |
| 20260507051503 | 45 | 28 | 0.9 | 3.5 | 0.00 | 0.00 | 0.00 | 86 | 1014.0 |
| 20260507051003 | 45 | 29 | 0.9 | 3.5 | 0.00 | 0.00 | 0.00 | 86 | 1014.0 |
| 20260507050503 | 44 | 28 | 0.9 | 3.5 | 0.00 | 0.00 | 0.00 | 86 | 1014.1 |
| 20260507050218 | 44 | 22 | 0.9 | 3.5 | 0.00 | 0.00 | 0.00 | 87 | 1014.0 |
| 20260507045717 | 44 | 18 | 0.9 | 6.1 | 0.00 | 0.00 | 0.00 | 87 | 1013.9 |
| 20260507045003 | 43 | 22 | 1.7 | 6.1 | 0.00 | 0.00 | 0.00 | 87 | 1013.9 |
| 20260507044717 | 43 | 20 | 1.7 | 4.3 | 0.00 | 0.00 | 0.00 | 87 | 1013.9 |
| 20260507044218 | 43 | 16 | 1.7 | 4.3 | 0.00 | 0.00 | 0.00 | 87 | 1013.8 |
| 20260507043503 | 42 | 16 | 1.7 | 6.1 | 0.00 | 0.00 | 0.00 | 87 | 1013.5 |
| 20260507043217 | 42 | 19 | 1.7 | 6.1 | 0.00 | 0.00 | 0.00 | 86 | 1013.4 |
| 20260507042503 | 42 | 18 | 2.6 | 6.1 | 0.00 | 0.00 | 0.00 | 86 | 1013.6 |
| 20260507042003 | 42 | 17 | 1.7 | 6.1 | 0.00 | 0.00 | 0.00 | 86 | 1013.7 |
| 20260507041503 | 42 | 23 | 1.7 | 4.3 | 0.00 | 0.00 | 0.00 | 86 | 1013.4 |
| 20260507041003 | 42 | 22 | 1.7 | 4.3 | 0.00 | 0.00 | 0.00 | 85 | 1013.6 |
| 20260507040503 | 41 | 19 | 0.9 | 2.6 | 0.00 | 0.00 | 0.00 | 85 | 1013.4 |
| 20260507040217 | 41 | 23 | 0.9 | 2.6 | 0.00 | 0.00 | 0.00 | 85 | 1013.4 |
| 20260507035503 | 41 | 21 | 0.9 | 2.6 | 0.00 | 0.00 | 0.00 | 85 | 1013.5 |
| 20260507035003 | 41 | 24 | 0.0 | 6.1 | 0.00 | 0.00 | 0.00 | 85 | 1013.4 |
| 20260507034503 | 41 | 23 | 0.9 | 6.1 | 0.00 | 0.00 | 0.00 | 85 | 1013.2 |
| 20260507034217 | 41 | 22 | 0.9 | 6.1 | 0.00 | 0.00 | 0.00 | 85 | 1013.4 |
| 20260507033503 | 41 | 18 | 0.0 | 0.9 | 0.00 | 0.00 | 0.00 | 84 | 1013.3 |
| 20260507033003 | 41 | 23 | 0.0 | 2.6 | 0.00 | 0.00 | 0.00 | 84 | 1013.0 |
| 20260507032503 | 41 | 20 | 0.9 | 2.6 | 0.00 | 0.00 | 0.00 | 84 | 1013.2 |
| 20260507032003 | 41 | 19 | 0.9 | 2.6 | 0.00 | 0.00 | 0.00 | 83 | 1013.2 |
| 20260507031503 | 41 | 21 | 0.9 | 2.6 | 0.00 | 0.00 | 0.00 | 83 | 1013.2 |
| 20260507031217 | 42 | 24 | 0.0 | 2.6 | 0.00 | 0.00 | 0.00 | 83 | 1013.1 |
| 20260507030503 | 42 | 0 | 0.0 | 0.0 | 0.00 | 0.00 | 0.00 | 83 | 1013.1 |
| 20260507030003 | 42 | 23 | 0.0 | 0.9 | 0.00 | 0.00 | 0.00 | 83 | 1013.1 |
| 20260507025718 | 42 | 23 | 0.0 | 0.9 | 0.00 | 0.00 | 0.00 | 83 | 1013.0 |
| 20260507025217 | 42 | 24 | 0.0 | 0.9 | 0.00 | 0.00 | 0.00 | 83 | 1013.0 |
| 20260507024718 | 42 | 27 | 0.0 | 0.9 | 0.00 | 0.00 | 0.00 | 83 | 1012.9 |
| 20260507024003 | 42 | 25 | 0.0 | 0.9 | 0.00 | 0.00 | 0.00 | 84 | 1012.9 |
| 20260507023503 | 42 | 24 | 0.0 | 0.9 | 0.00 | 0.00 | 0.00 | 84 | 1012.9 |
| 20260507023003 | 42 | 19 | 0.0 | 2.6 | 0.00 | 0.00 | 0.00 | 83 | 1013.0 |
| 20260507022503 | 42 | 20 | 0.0 | 2.6 | 0.00 | 0.00 | 0.00 | 83 | 1012.8 |
| 20260507022003 | 43 | 22 | 0.0 | 2.6 | 0.00 | 0.00 | 0.00 | 83 | 1012.9 |
| 20260507021503 | 43 | 23 | 0.9 | 2.6 | 0.00 | 0.00 | 0.00 | 83 | 1012.7 |
| 20260507021003 | 43 | 26 | 0.9 | 3.5 | 0.00 | 0.00 | 0.00 | 83 | 1012.7 |
| 20260507020503 | 43 | 24 | 1.7 | 3.5 | 0.00 | 0.00 | 0.00 | 82 | 1012.7 |
| 20260507020217 | 43 | 24 | 1.7 | 3.5 | 0.00 | 0.00 | 0.00 | 82 | 1012.8 |
| 20260507015503 | 43 | 23 | 0.0 | 2.6 | 0.00 | 0.00 | 0.00 | 82 | 1012.7 |
| 20260507015003 | 43 | 27 | 0.0 | 2.6 | 0.00 | 0.00 | 0.00 | 82 | 1012.7 |
| 20260507014503 | 44 | 30 | 0.9 | 2.6 | 0.00 | 0.00 | 0.00 | 82 | 1012.6 |
| 20260507014217 | 44 | 31 | 0.0 | 2.6 | 0.00 | 0.00 | 0.00 | 82 | 1012.7 |
| 20260507013503 | 44 | 33 | 0.0 | 0.9 | 0.00 | 0.00 | 0.00 | 82 | 1012.5 |
| 20260507013003 | 44 | 33 | 0.9 | 4.3 | 0.00 | 0.00 | 0.00 | 81 | 1012.6 |
| 20260507012503 | 44 | 31 | 1.7 | 6.1 | 0.00 | 0.00 | 0.00 | 81 | 1012.1 |
| 20260507012003 | 44 | 26 | 2.6 | 6.1 | 0.00 | 0.00 | 0.00 | 81 | 1012.2 |
| 20260507011503 | 44 | 24 | 2.6 | 6.1 | 0.00 | 0.00 | 0.00 | 81 | 1012.1 |
| 20260507010503 | 44 | 31 | 2.6 | 7.0 | 0.00 | 0.00 | 0.00 | 81 | 1012.3 |
| 20260507010003 | 44 | 39 | 2.6 | 7.0 | 0.00 | 0.00 | 0.00 | 81 | 1012.2 |
| 20260507005503 | 44 | 36 | 2.6 | 7.0 | 0.00 | 0.00 | 0.00 | 81 | 1012.3 |
| 20260507005003 | 44 | 28 | 2.6 | 6.1 | 0.00 | 0.00 | 0.00 | 81 | 1012.3 |
| 20260507004503 | 44 | 28 | 2.6 | 6.1 | 0.00 | 0.00 | 0.00 | 81 | 1012.1 |
| 20260507004003 | 44 | 38 | 1.7 | 6.1 | 0.00 | 0.00 | 0.00 | 81 | 1012.2 |
| 20260507003503 | 45 | 38 | 1.7 | 6.1 | 0.00 | 0.00 | 0.00 | 81 | 1012.1 |
| 20260507003003 | 45 | 31 | 1.7 | 3.5 | 0.00 | 0.00 | 0.00 | 81 | 1012.0 |
| 20260507002503 | 45 | 25 | 1.7 | 6.1 | 0.00 | 0.00 | 0.00 | 80 | 1012.2 |
| 20260507002003 | 45 | 26 | 2.6 | 6.1 | 0.00 | 0.00 | 0.00 | 80 | 1012.1 |
| 20260507001503 | 45 | 26 | 2.6 | 6.1 | 0.00 | 0.00 | 0.00 | 80 | 1012.0 |
| 20260507001003 | 45 | 25 | 2.6 | 4.3 | 0.00 | 0.00 | 0.00 | 80 | 1012.3 |
| 20260507000717 | 45 | 25 | 2.6 | 6.1 | 0.00 | 0.00 | 0.00 | 80 | 1012.1 |
| 20260507000003 | 45 | 26 | 2.6 | 6.1 | 0.00 | 0.00 | 0.00 | 79 | 1011.9 |
| 20260506235503 | 46 | 28 | 1.7 | 6.1 | 0.00 | 0.00 | 0.00 | 79 | 1012.0 |
| 20260506235003 | 46 | 27 | 1.7 | 4.3 | 0.00 | 0.00 | 0.00 | 79 | 1012.0 |
| 20260506234503 | 46 | 23 | 1.7 | 4.3 | 0.00 | 0.00 | 0.00 | 79 | 1012.2 |
| 20260506234003 | 46 | 25 | 2.6 | 4.3 | 0.00 | 0.00 | 0.00 | 78 | 1012.0 |
| 20260506233503 | 46 | 34 | 2.6 | 6.1 | 0.00 | 0.00 | 0.00 | 78 | 1012.1 |
| 20260506233003 | 46 | 32 | 2.6 | 6.1 | 0.00 | 0.00 | 0.00 | 78 | 1012.0 |
| 20260506232503 | 47 | 22 | 2.6 | 6.1 | 0.00 | 0.00 | 0.00 | 78 | 1012.0 |
| 20260506232003 | 47 | 24 | 2.6 | 6.1 | 0.00 | 0.00 | 0.00 | 78 | 1012.0 |
| 20260506231503 | 47 | 34 | 2.6 | 6.1 | 0.00 | 0.00 | 0.00 | 78 | 1011.9 |
| 20260506231003 | 47 | 34 | 2.6 | 7.0 | 0.00 | 0.00 | 0.00 | 78 | 1012.0 |
| 20260506230503 | 47 | 29 | 1.7 | 7.0 | 0.00 | 0.00 | 0.00 | 78 | 1012.0 |
| 20260506230003 | 47 | 27 | 1.7 | 3.5 | 0.00 | 0.00 | 0.00 | 78 | 1012.0 |
| 20260506225503 | 47 | 20 | 2.6 | 7.0 | 0.00 | 0.00 | 0.00 | 77 | 1012.0 |
| 20260506225218 | 47 | 19 | 2.6 | 7.0 | 0.00 | 0.00 | 0.00 | 77 | 1012.0 |
| 20260506224503 | 47 | 33 | 3.5 | 7.0 | 0.00 | 0.00 | 0.00 | 77 | 1011.8 |
| 20260506224003 | 47 | 37 | 2.6 | 7.0 | 0.00 | 0.00 | 0.00 | 77 | 1011.6 |
| 20260506223503 | 48 | 29 | 1.7 | 6.1 | 0.00 | 0.00 | 0.00 | 77 | 1011.7 |
| 20260506223003 | 48 | 27 | 1.7 | 6.1 | 0.00 | 0.00 | 0.00 | 77 | 1011.7 |
| 20260506222503 | 48 | 31 | 2.6 | 7.0 | 0.00 | 0.00 | 0.00 | 76 | 1011.8 |
| 20260506222217 | 48 | 33 | 3.5 | 8.7 | 0.00 | 0.00 | 0.00 | 76 | 1011.7 |
| 20260506221504 | 48 | 32 | 4.3 | 8.7 | 0.00 | 0.00 | 0.00 | 76 | 1011.5 |
| 20260506221003 | 49 | 31 | 4.3 | 9.6 | 0.00 | 0.00 | 0.00 | 76 | 1011.6 |
| 20260506220503 | 49 | 29 | 3.5 | 9.6 | 0.00 | 0.00 | 0.00 | 76 | 1011.6 |
| 20260506220217 | 49 | 20 | 3.5 | 9.6 | 0.00 | 0.00 | 0.00 | 76 | 1011.5 |
| 20260506215503 | 49 | 31 | 4.3 | 9.6 | 0.00 | 0.00 | 0.00 | 75 | 1011.7 |
| 20260506215003 | 49 | 35 | 4.3 | 9.6 | 0.00 | 0.00 | 0.00 | 75 | 1011.8 |
| 20260506214503 | 49 | 32 | 3.5 | 8.7 | 0.00 | 0.00 | 0.00 | 75 | 1011.5 |
| 20260506214003 | 49 | 31 | 3.5 | 7.0 | 0.00 | 0.00 | 0.00 | 75 | 1011.4 |
| 20260506213503 | 49 | 28 | 3.5 | 7.0 | 0.00 | 0.00 | 0.00 | 74 | 1011.5 |
| 20260506213003 | 49 | 28 | 4.3 | 9.6 | 0.00 | 0.00 | 0.00 | 74 | 1011.3 |
| 20260506212503 | 49 | 27 | 4.3 | 9.6 | 0.00 | 0.00 | 0.00 | 74 | 1011.3 |
| 20260506212003 | 49 | 31 | 4.3 | 7.0 | 0.00 | 0.00 | 0.00 | 73 | 1011.4 |
| 20260506211503 | 50 | 33 | 3.5 | 7.0 | 0.00 | 0.00 | 0.00 | 73 | 1011.2 |
| 20260506211003 | 50 | 32 | 3.5 | 8.7 | 0.00 | 0.00 | 0.00 | 73 | 1011.2 |
| 20260506210503 | 50 | 26 | 3.5 | 10.4 | 0.00 | 0.00 | 0.00 | 72 | 1011.2 |
| 20260506210003 | 50 | 24 | 4.3 | 10.4 | 0.00 | 0.00 | 0.00 | 72 | 1011.3 |
| 20260506205503 | 50 | 32 | 3.5 | 10.4 | 0.00 | 0.00 | 0.00 | 71 | 1011.3 |
| 20260506205003 | 50 | 35 | 3.5 | 7.0 | 0.00 | 0.00 | 0.00 | 71 | 1011.1 |
| 20260506204503 | 49 | 34 | 2.6 | 7.0 | 0.00 | 0.00 | 0.00 | 71 | 1011.2 |
| 20260506204003 | 50 | 30 | 2.6 | 6.1 | 0.00 | 0.00 | 0.00 | 70 | 1011.0 |
| 20260506203718 | 50 | 28 | 2.6 | 6.1 | 0.00 | 0.00 | 0.00 | 70 | 1011.0 |
| 20260506203003 | 50 | 21 | 2.6 | 6.1 | 0.00 | 0.00 | 0.00 | 69 | 1011.1 |
| 20260506202503 | 50 | 24 | 2.6 | 4.3 | 0.00 | 0.00 | 0.00 | 69 | 1011.0 |
| 20260506202216 | 50 | 23 | 1.7 | 4.3 | 0.00 | 0.00 | 0.00 | 68 | 1011.0 |
| 20260506201503 | 51 | 28 | 1.7 | 3.5 | 0.00 | 0.00 | 0.00 | 68 | 1011.3 |
| 20260506201003 | 51 | 29 | 1.7 | 3.5 | 0.00 | 0.00 | 0.00 | 67 | 1010.9 |
| 20260506200717 | 51 | 32 | 1.7 | 3.5 | 0.00 | 0.00 | 0.00 | 67 | 1010.9 |
| 20260506200003 | 52 | 39 | 1.7 | 6.1 | 0.00 | 0.00 | 0.00 | 67 | 1010.9 |
| 20260506195717 | 52 | 37 | 2.6 | 7.0 | 0.00 | 0.00 | 0.00 | 66 | 1011.0 |
| 20260506195003 | 52 | 28 | 3.5 | 7.0 | 0.00 | 0.00 | 0.00 | 66 | 1010.9 |
| 20260506194503 | 52 | 23 | 2.6 | 7.0 | 0.00 | 0.00 | 0.00 | 66 | 1010.6 |
| 20260506194218 | 52 | 28 | 2.6 | 7.0 | 0.00 | 0.00 | 0.00 | 66 | 1010.8 |
| 20260506193504 | 53 | 31 | 2.6 | 7.0 | 0.00 | 0.00 | 0.00 | 66 | 1010.6 |
| 20260506193003 | 53 | 31 | 3.5 | 10.4 | 0.00 | 0.00 | 0.00 | 66 | 1010.5 |
| 20260506192503 | 53 | 29 | 3.5 | 10.4 | 0.00 | 0.00 | 0.00 | 66 | 1010.5 |
| 20260506192003 | 53 | 23 | 3.5 | 8.7 | 0.00 | 0.00 | 0.00 | 66 | 1010.6 |
| 20260506191503 | 53 | 25 | 3.5 | 8.7 | 0.00 | 0.00 | 0.00 | 65 | 1010.4 |
| 20260506191003 | 53 | 29 | 4.3 | 8.7 | 0.00 | 0.00 | 0.00 | 65 | 1010.2 |
| 20260506190717 | 53 | 28 | 4.3 | 8.7 | 0.00 | 0.00 | 0.00 | 65 | 1010.4 |
| 20260506190007 | 54 | 30 | 3.5 | 7.0 | 0.00 | 0.00 | 0.00 | 64 | 1010.3 |
| 20260506185503 | 54 | 18 | 3.5 | 7.0 | 0.00 | 0.00 | 0.00 | 64 | 1010.1 |
| 20260506185003 | 54 | 26 | 3.5 | 10.4 | 0.00 | 0.00 | 0.00 | 63 | 1010.1 |
| 20260506184717 | 54 | 27 | 3.5 | 10.4 | 0.00 | 0.00 | 0.00 | 63 | 1010.0 |
| 20260506184003 | 54 | 29 | 2.6 | 8.7 | 0.00 | 0.00 | 0.00 | 62 | 1010.0 |
| 20260506183503 | 54 | 28 | 2.6 | 8.7 | 0.00 | 0.00 | 0.00 | 61 | 1009.8 |
| 20260506183003 | 55 | 34 | 1.7 | 6.1 | 0.00 | 0.00 | 0.00 | 60 | 1009.7 |
| 20260506182503 | 55 | 47 | 2.6 | 6.1 | 0.00 | 0.00 | 0.00 | 60 | 1009.9 |
| 20260506182218 | 55 | 43 | 2.6 | 6.1 | 0.00 | 0.00 | 0.00 | 59 | 1009.8 |
| 20260506181503 | 55 | 34 | 3.5 | 7.0 | 0.00 | 0.00 | 0.00 | 58 | 1009.7 |
| 20260506181003 | 55 | 42 | 3.5 | 8.7 | 0.00 | 0.00 | 0.00 | 58 | 1009.8 |
| 20260506180503 | 55 | 38 | 3.5 | 8.7 | 0.00 | 0.00 | 0.00 | 57 | 1009.8 |
| 20260506180004 | 55 | 36 | 3.5 | 8.7 | 0.00 | 0.00 | 0.00 | 57 | 1009.7 |
| 20260506175503 | 56 | 41 | 3.5 | 9.6 | 0.00 | 0.00 | 0.00 | 57 | 1009.5 |
| 20260506175003 | 56 | 37 | 4.3 | 9.6 | 0.00 | 0.00 | 0.00 | 56 | 1009.6 |
| 20260506174503 | 56 | 35 | 3.5 | 8.7 | 0.00 | 0.00 | 0.00 | 56 | 1009.6 |
| 20260506174003 | 56 | 24 | 2.6 | 7.0 | 0.00 | 0.00 | 0.00 | 56 | 1009.5 |
| 20260506173716 | 56 | 18 | 2.6 | 7.0 | 0.00 | 0.00 | 0.00 | 56 | 1009.3 |
| 20260506173218 | 56 | 28 | 2.6 | 7.0 | 0.00 | 0.00 | 0.00 | 56 | 1009.3 |
| 20260506172503 | 56 | 34 | 3.5 | 8.7 | 0.00 | 0.00 | 0.00 | 55 | 1009.4 |
| 20260506172217 | 56 | 33 | 3.5 | 8.7 | 0.00 | 0.00 | 0.00 | 55 | 1009.4 |
| 20260506171503 | 56 | 41 | 3.5 | 8.7 | 0.00 | 0.00 | 0.00 | 55 | 1009.4 |
| 20260506171003 | 56 | 33 | 4.3 | 9.6 | 0.00 | 0.00 | 0.00 | 55 | 1009.4 |
| 20260506170503 | 57 | 20 | 4.3 | 9.6 | 0.00 | 0.00 | 0.00 | 54 | 1009.3 |
| 20260506170003 | 57 | 21 | 4.3 | 9.6 | 0.00 | 0.00 | 0.00 | 54 | 1009.3 |
| 20260506165503 | 57 | 36 | 4.3 | 10.4 | 0.00 | 0.00 | 0.00 | 53 | 1009.2 |
| 20260506165003 | 57 | 39 | 3.5 | 10.4 | 0.00 | 0.00 | 0.00 | 53 | 1009.3 |
| 20260506164503 | 57 | 34 | 3.5 | 12.2 | 0.00 | 0.00 | 0.00 | 52 | 1009.2 |
| 20260506164003 | 57 | 41 | 4.3 | 12.2 | 0.00 | 0.00 | 0.00 | 52 | 1009.3 |
| 20260506163503 | 57 | 43 | 4.3 | 9.6 | 0.00 | 0.00 | 0.00 | 51 | 1009.3 |
| 20260506163003 | 57 | 35 | 4.3 | 9.6 | 0.00 | 0.00 | 0.00 | 51 | 1009.1 |
| 20260506162503 | 57 | 35 | 4.3 | 9.6 | 0.00 | 0.00 | 0.00 | 50 | 1009.0 |
| 20260506162003 | 57 | 42 | 5.2 | 12.2 | 0.00 | 0.00 | 0.00 | 49 | 1009.2 |
| 20260506161718 | 57 | 39 | 5.2 | 12.2 | 0.00 | 0.00 | 0.00 | 50 | 1009.3 |
| 20260506161003 | 57 | 19 | 5.2 | 13.0 | 0.00 | 0.00 | 0.00 | 49 | 1009.2 |
| 20260506160718 | 57 | 26 | 6.1 | 13.0 | 0.00 | 0.00 | 0.00 | 48 | 1009.2 |
| 20260506160003 | 58 | 47 | 5.2 | 13.0 | 0.00 | 0.00 | 0.00 | 48 | 1009.1 |
| 20260506155503 | 58 | 44 | 5.2 | 12.2 | 0.00 | 0.00 | 0.00 | 48 | 1009.2 |
| 20260506155003 | 58 | 32 | 5.2 | 12.2 | 0.00 | 0.00 | 0.00 | 48 | 1009.3 |
| 20260506154503 | 58 | 26 | 5.2 | 12.2 | 0.00 | 0.00 | 0.00 | 47 | 1009.3 |
| 20260506154003 | 58 | 30 | 5.2 | 13.0 | 0.00 | 0.00 | 0.00 | 47 | 1009.3 |
| 20260506153503 | 58 | 30 | 6.1 | 13.0 | 0.00 | 0.00 | 0.00 | 46 | 1009.2 |
| 20260506153217 | 58 | 33 | 6.1 | 13.0 | 0.00 | 0.00 | 0.00 | 46 | 1009.1 |
| 20260506152718 | 58 | 38 | 5.2 | 13.0 | 0.00 | 0.00 | 0.00 | 46 | 1009.5 |
| 20260506152217 | 58 | 37 | 6.1 | 13.0 | 0.00 | 0.00 | 0.00 | 47 | 1009.4 |
| 20260506151503 | 59 | 38 | 6.1 | 15.6 | 0.00 | 0.00 | 0.00 | 46 | 1009.2 |
| 20260506151216 | 59 | 42 | 6.1 | 15.6 | 0.00 | 0.00 | 0.00 | 46 | 1009.3 |
| 20260506150503 | 59 | 44 | 4.3 | 15.6 | 0.00 | 0.00 | 0.00 | 45 | 1009.3 |
| 20260506150003 | 59 | 33 | 3.5 | 9.6 | 0.00 | 0.00 | 0.00 | 44 | 1009.4 |
| 20260506145503 | 59 | 41 | 4.3 | 9.6 | 0.00 | 0.00 | 0.00 | 43 | 1009.1 |
| 20260506145216 | 59 | 35 | 5.2 | 13.0 | 0.00 | 0.00 | 0.00 | 43 | 1009.3 |
| 20260506144717 | 59 | 30 | 5.2 | 13.0 | 0.00 | 0.00 | 0.00 | 44 | 1009.3 |
| 20260506144216 | 59 | 38 | 6.1 | 13.0 | 0.00 | 0.00 | 0.00 | 45 | 1009.3 |
| 20260506143503 | 59 | 45 | 6.1 | 13.0 | 0.00 | 0.00 | 0.00 | 44 | 1009.3 |
| 20260506143003 | 59 | 43 | 6.1 | 13.0 | 0.00 | 0.00 | 0.00 | 45 | 1009.2 |
| 20260506142503 | 59 | 41 | 5.2 | 13.0 | 0.00 | 0.00 | 0.00 | 45 | 1009.3 |
| 20260506142003 | 59 | 44 | 5.2 | 13.9 | 0.00 | 0.00 | 0.00 | 44 | 1009.1 |
| 20260506141717 | 59 | 42 | 5.2 | 16.5 | 0.00 | 0.00 | 0.00 | 45 | 1009.3 |
| 20260506141003 | 59 | 35 | 6.1 | 16.5 | 0.00 | 0.00 | 0.00 | 46 | 1009.3 |
| 20260506140503 | 59 | 43 | 5.2 | 18.2 | 0.00 | 0.00 | 0.00 | 47 | 1009.2 |
| 20260506140003 | 59 | 44 | 6.1 | 18.2 | 0.00 | 0.00 | 0.00 | 47 | 1009.3 |
| 20260506135503 | 59 | 36 | 6.1 | 18.2 | 0.00 | 0.00 | 0.00 | 46 | 1009.1 |
| 20260506135003 | 59 | 28 | 4.3 | 10.4 | 0.00 | 0.00 | 0.00 | 47 | 1009.3 |
| 20260506134503 | 59 | 38 | 5.2 | 18.2 | 0.00 | 0.00 | 0.00 | 46 | 1009.1 |
| 20260506134218 | 59 | 37 | 7.0 | 18.2 | 0.00 | 0.00 | 0.00 | 45 | 1009.2 |
| 20260506133503 | 59 | 38 | 7.0 | 18.2 | 0.00 | 0.00 | 0.00 | 46 | 1009.3 |
| 20260506133003 | 59 | 36 | 7.0 | 15.6 | 0.00 | 0.00 | 0.00 | 47 | 1009.0 |
| 20260506132717 | 59 | 42 | 7.0 | 15.6 | 0.00 | 0.00 | 0.00 | 46 | 1009.1 |
| 20260506132003 | 59 | 53 | 7.0 | 15.6 | 0.00 | 0.00 | 0.00 | 48 | 1009.1 |
| 20260506131503 | 59 | 37 | 6.1 | 13.9 | 0.00 | 0.00 | 0.00 | 48 | 1008.9 |
| 20260506131003 | 59 | 22 | 5.2 | 13.9 | 0.00 | 0.00 | 0.00 | 47 | 1009.0 |
| 20260506130503 | 59 | 18 | 5.2 | 13.9 | 0.00 | 0.00 | 0.00 | 48 | 1008.9 |
| 20260506130004 | 59 | 24 | 5.2 | 13.0 | 0.00 | 0.00 | 0.00 | 48 | 1009.0 |
| 20260506125503 | 59 | 29 | 7.0 | 13.0 | 0.00 | 0.00 | 0.00 | 49 | 1009.0 |
| 20260506125003 | 59 | 39 | 7.0 | 13.9 | 0.00 | 0.00 | 0.00 | 49 | 1009.0 |
| 20260506124503 | 59 | 36 | 6.1 | 13.9 | 0.00 | 0.00 | 0.00 | 49 | 1009.1 |
| 20260506124218 | 59 | 36 | 6.1 | 19.1 | 0.00 | 0.00 | 0.00 | 49 | 1009.0 |
| 20260506123503 | 59 | 46 | 6.1 | 19.1 | 0.00 | 0.00 | 0.00 | 50 | 1009.0 |
| 20260506123218 | 59 | 43 | 6.1 | 19.1 | 0.00 | 0.00 | 0.00 | 50 | 1008.9 |
| 20260506122503 | 59 | 29 | 7.0 | 15.6 | 0.00 | 0.00 | 0.00 | 50 | 1008.8 |
| 20260506122003 | 59 | 39 | 6.1 | 15.6 | 0.00 | 0.00 | 0.00 | 51 | 1008.8 |
| 20260506121716 | 59 | 40 | 6.1 | 15.6 | 0.00 | 0.00 | 0.00 | 51 | 1008.9 |
| 20260506121003 | 58 | 24 | 5.2 | 13.0 | 0.00 | 0.00 | 0.00 | 51 | 1008.8 |
| 20260506120717 | 58 | 24 | 5.2 | 13.0 | 0.00 | 0.00 | 0.00 | 52 | 1008.8 |
| 20260506120003 | 58 | 46 | 5.2 | 12.2 | 0.00 | 0.00 | 0.00 | 52 | 1008.7 |
| 20260506115503 | 58 | 27 | 6.1 | 13.0 | 0.00 | 0.00 | 0.00 | 52 | 1008.8 |
| 20260506115003 | 58 | 22 | 5.2 | 13.0 | 0.00 | 0.00 | 0.00 | 51 | 1008.8 |
| 20260506114503 | 58 | 38 | 6.1 | 15.6 | 0.00 | 0.00 | 0.00 | 52 | 1008.7 |
| 20260506114003 | 58 | 44 | 8.7 | 16.5 | 0.00 | 0.00 | 0.00 | 52 | 1008.9 |
| 20260506113503 | 58 | 42 | 7.8 | 16.5 | 0.00 | 0.00 | 0.00 | 52 | 1008.8 |
| 20260506113003 | 58 | 38 | 7.0 | 18.2 | 0.00 | 0.00 | 0.00 | 52 | 1008.7 |
| 20260506112718 | 58 | 47 | 6.1 | 18.2 | 0.00 | 0.00 | 0.00 | 53 | 1008.6 |
| 20260506112003 | 58 | 44 | 7.0 | 15.6 | 0.00 | 0.00 | 0.00 | 53 | 1009.0 |
| 20260506111503 | 57 | 30 | 7.0 | 15.6 | 0.00 | 0.00 | 0.00 | 53 | 1009.0 |
| 20260506111217 | 57 | 28 | 6.1 | 15.6 | 0.00 | 0.00 | 0.00 | 52 | 1009.0 |
| 20260506110503 | 57 | 30 | 4.3 | 13.0 | 0.00 | 0.00 | 0.00 | 52 | 1008.8 |
| 20260506110003 | 57 | 35 | 4.3 | 13.0 | 0.00 | 0.00 | 0.00 | 53 | 1009.0 |
| 20260506105503 | 57 | 38 | 4.3 | 13.0 | 0.00 | 0.00 | 0.00 | 54 | 1008.8 |
| 20260506105003 | 57 | 36 | 5.2 | 13.0 | 0.00 | 0.00 | 0.00 | 54 | 1008.9 |
| 20260506104503 | 57 | 36 | 7.0 | 16.5 | 0.00 | 0.00 | 0.00 | 55 | 1009.2 |
| 20260506104003 | 57 | 38 | 7.0 | 16.5 | 0.00 | 0.00 | 0.00 | 55 | 1009.0 |
| 20260506103503 | 57 | 23 | 6.1 | 16.5 | 0.00 | 0.00 | 0.00 | 55 | 1009.1 |
| 20260506103003 | 57 | 19 | 6.1 | 13.0 | 0.00 | 0.00 | 0.00 | 55 | 1008.9 |
| 20260506102503 | 57 | 39 | 7.0 | 13.0 | 0.00 | 0.00 | 0.00 | 56 | 1009.0 |
| 20260506102003 | 56 | 36 | 6.1 | 13.0 | 0.00 | 0.00 | 0.00 | 55 | 1008.9 |
| 20260506101504 | 56 | 29 | 6.1 | 13.0 | 0.00 | 0.00 | 0.00 | 55 | 1008.9 |
| 20260506101003 | 56 | 30 | 7.0 | 15.6 | 0.00 | 0.00 | 0.00 | 55 | 1009.0 |
| 20260506100718 | 56 | 30 | 6.1 | 15.6 | 0.00 | 0.00 | 0.00 | 55 | 1009.2 |
| 20260506100003 | 56 | 35 | 5.2 | 13.9 | 0.00 | 0.00 | 0.00 | 56 | 1009.0 |
| 20260506095503 | 56 | 30 | 7.0 | 13.9 | 0.00 | 0.00 | 0.00 | 56 | 1009.1 |
| 20260506095003 | 56 | 34 | 7.8 | 23.5 | 0.00 | 0.00 | 0.00 | 56 | 1009.3 |
| 20260506094717 | 55 | 29 | 7.8 | 23.5 | 0.00 | 0.00 | 0.00 | 56 | 1009.3 |
| 20260506094003 | 55 | 18 | 7.8 | 23.5 | 0.00 | 0.00 | 0.00 | 56 | 1009.2 |